Theta_e
315 315 315 315 314 314 314 314 314 315 315 316 316 316 316 316 315 317 310 311 316 319 323 316 312 308 313 310 312 314 304 301 303 305 308 313 311 314 316 312 314 317 321 326 338
315 315 314 314 314 314 313 314 314 315 315 316 316 316 315 315 315 312 315 316 318 321 317 308 307 308 305 306 306 305 302 302 308 310 309 312 312 312 311 310 311 313 318 325 331
314 314 314 314 314 314 313 313 314 315 315 316 316 315 315 316 311 310 320 320 320 320 319 311 308 307 304 306 305 303 299 306 307 309 311 310 311 313 310 308 311 312 314 317 319
314 314 314 313 313 313 313 313 314 315 315 315 315 315 315 315 300 314 322 321 322 321 315 311 309 304 302 301 305 300 304 304 304 307 307 307 311 311 311 311 315 316 317 317 317
313 313 313 313 313 313 313 313 314 314 314 314 314 314 314 309 308 320 324 322 320 317 310 308 305 305 301 302 303 301 303 304 306 305 306 308 308 309 311 314 315 315 316 316 317
314 313 312 312 312 312 313 313 313 314 314 314 314 314 312 303 314 318 316 315 314 312 311 310 307 308 303 302 301 303 303 303 305 304 305 303 305 308 311 314 314 314 314 315 316
313 313 312 312 312 312 312 312 313 313 314 315 315 314 309 306 314 315 314 313 314 312 309 311 311 307 306 302 306 303 299 300 301 302 303 305 300 302 309 313 313 314 315 315 316
313 313 312 312 311 312 312 312 313 315 316 316 316 315 305 315 317 313 314 313 315 315 312 313 312 308 305 306 303 299 299 294 301 302 302 302 295 304 308 308 309 313 315 316 318
313 312 312 311 311 312 312 312 314 316 317 316 315 312 304 312 309 313 314 309 310 312 313 312 310 305 305 299 296 298 292 294 297 302 301 300 297 303 308 308 307 310 314 316 318
312 312 312 311 311 311 311 311 317 316 317 318 315 307 309 304 309 311 313 311 308 308 307 307 305 301 300 297 289 290 291 294 294 299 299 298 298 303 306 307 307 309 310 312 316
312 311 311 311 311 311 311 316 311 310 312 303 303 303 305 310 312 309 311 309 308 305 299 303 298 295 297 299 298 296 294 292 296 298 297 297 298 301 305 306 307 307 310 311 313
311 311 311 311 311 311 313 309 307 307 300 307 306 305 307 309 302 306 311 304 303 297 301 298 293 300 301 299 298 296 294 293 296 300 298 297 295 300 305 305 307 309 309 311 313
310 310 310 311 311 311 312 309 313 313 301 302 304 304 304 306 302 303 307 304 300 298 297 295 298 300 298 297 296 296 294 294 294 298 299 296 293 297 302 305 307 310 312 313 314
309 309 309 310 308 313 312 313 314 314 297 297 300 303 305 306 300 307 308 304 301 296 298 297 301 298 297 295 296 292 298 296 295 293 289 296 286 294 299 302 305 307 309 311 314
309 309 309 308 315 310 310 314 314 312 288 297 299 308 306 301 302 304 309 304 297 297 298 295 297 296 296 296 298 294 298 297 296 293 291 292 287 292 298 299 302 306 309 311 314
308 309 309 313 316 310 311 313 312 297 285 293 299 298 298 300 302 304 304 306 305 298 298 297 302 300 299 299 300 300 296 296 295 292 285 290 288 290 294 298 302 305 308 310 313
308 308 309 313 305 311 313 310 297 290 297 293 294 297 297 298 299 300 297 296 295 291 292 296 298 301 301 297 298 298 293 286 284 284 283 291 287 291 298 302 304 305 307 311 313
306 306 312 312 311 313 311 302 290 293 293 297 296 297 295 298 298 298 296 292 298 296 292 290 288 296 299 297 294 294 292 287 280 281 284 291 286 291 299 304 307 310 311 312 313
304 316 315 311 312 313 306 294 291 294 295 294 295 294 294 296 296 295 295 295 296 298 291 290 290 297 299 300 299 295 291 296 289 291 286 289 292 298 300 302 305 308 310 311 313
308 311 311 311 313 311 301 288 294 297 297 296 291 294 291 293 292 292 293 297 295 299 299 291 286 294 296 300 299 297 298 289 290 281 280 286 287 289 295 298 303 307 309 312 314
310 306 310 312 313 304 295 294 296 299 299 294 293 293 294 291 292 290 292 297 299 297 298 293 290 289 294 293 293 293 292 294 293 290 284 281 287 298 298 301 303 307 309 312 314
309 301 311 311 300 300 295 295 296 297 300 298 298 297 294 293 291 291 291 293 299 298 291 295 290 286 289 297 299 298 294 294 287 287 290 289 287 301 304 304 305 305 308 312 315
303 304 311 310 295 295 298 296 297 297 297 296 295 299 299 292 287 292 293 298 299 295 289 292 288 284 288 294 296 294 296 296 295 294 289 286 288 302 305 305 305 306 310 313 315
304 299 304 305 302 296 295 296 295 299 297 298 297 298 295 292 293 289 292 295 297 296 299 295 287 285 283 288 291 290 293 295 294 289 290 291 288 295 302 302 307 308 311 313 315
305 300 300 295 297 297 298 296 294 294 298 299 297 296 294 289 289 290 292 293 297 298 294 291 286 289 290 292 291 291 291 293 292 294 290 293 289 296 301 302 305 309 311 313 314
301 299 300 299 300 297 294 295 293 295 296 295 295 297 295 290 291 288 292 294 291 295 291 291 286 291 290 293 293 291 293 293 294 294 294 295 293 300 305 305 307 310 313 313 324
307 307 300 297 299 295 294 294 294 297 298 299 297 295 293 296 300 299 301 300 298 289 286 285 287 287 287 294 291 287 293 294 294 296 297 291 296 302 302 304 308 308 315 322 318
Wind_Speed
19 19 19 18 18 18 17 16 15 14 14 14 14 14 15 16 21 17 4 7 4 1 11 13 9 10 10 15 19 16 19 22 28 28 20 22 25 15 18 14 23 21 16 8 13
19 19 19 19 18 18 17 16 15 14 14 14 14 15 15 15 18 11 12 6 4 5 11 6 7 5 12 14 15 20 18 28 24 23 21 27 25 18 15 20 21 24 22 19 18
20 21 20 20 19 18 17 16 15 14 14 14 15 14 14 15 15 7 14 10 7 8 13 7 8 10 14 14 17 21 24 25 25 22 24 27 24 20 18 23 22 19 24 23 21
21 21 21 21 20 19 17 15 14 14 15 14 14 13 13 14 6 11 15 12 9 12 12 8 9 10 13 15 16 23 25 25 24 25 26 25 22 24 20 22 14 20 21 20 19
21 22 22 22 21 20 17 15 14 14 14 13 12 11 11 11 17 20 15 11 11 12 11 10 10 12 15 13 14 19 21 23 25 22 25 27 24 26 26 23 18 17 13 17 21
20 22 22 22 22 20 18 15 15 16 15 13 10 8 11 17 9 13 10 10 11 10 13 11 11 12 13 16 17 18 20 21 19 23 26 23 25 26 26 23 19 22 20 15 20
22 21 22 22 22 21 18 16 14 16 16 13 10 9 11 16 1 8 9 9 12 10 14 12 10 14 13 16 14 15 20 21 22 21 24 24 30 35 25 26 25 22 19 21 20
23 23 23 23 22 20 19 17 17 14 8 8 10 12 11 11 5 9 10 12 11 10 13 12 11 15 18 17 20 20 21 21 20 24 25 25 34 31 28 26 29 26 21 24 24
23 23 23 24 23 20 18 17 14 3 7 11 10 12 14 4 11 15 9 11 11 13 7 9 12 16 16 17 16 17 19 24 22 20 21 30 35 25 28 28 29 27 24 22 23
24 23 23 23 22 19 17 16 8 10 10 10 6 9 9 8 2 6 11 17 14 13 13 14 15 15 16 14 16 18 17 19 17 9 19 28 31 21 25 29 29 24 28 26 25
25 25 24 22 22 17 15 7 7 10 12 15 16 17 19 13 9 13 13 13 15 12 17 16 13 16 19 16 19 21 24 25 25 19 17 26 23 24 24 28 22 29 19 24 26
27 26 26 23 22 15 9 7 10 9 14 19 7 8 6 7 9 12 14 19 16 16 16 14 17 20 21 17 24 23 24 25 23 22 21 21 26 29 23 27 28 22 23 22 24
26 27 26 24 19 6 6 7 9 10 10 1 1 6 2 5 12 18 7 9 14 19 18 18 19 19 12 17 24 19 21 23 24 26 22 20 25 25 28 25 26 24 17 20 20
27 27 25 24 6 8 0 8 11 6 9 8 5 5 9 15 13 3 11 14 16 19 16 16 21 20 20 22 18 22 22 22 24 22 17 21 19 25 26 25 25 24 22 22 22
28 27 25 9 12 8 11 10 10 6 6 4 4 3 13 15 12 4 4 9 14 16 17 20 22 12 16 14 13 20 20 21 17 23 20 25 16 19 26 29 26 25 25 25 24
28 27 23 5 10 10 12 8 6 9 4 7 4 13 14 15 9 10 7 5 13 18 21 24 23 19 20 19 12 15 16 20 20 15 18 24 22 19 23 31 31 29 31 29 28
29 24 15 9 9 13 9 9 9 5 12 8 19 17 18 9 13 11 11 13 12 8 13 13 18 21 21 15 15 17 14 7 8 11 17 19 23 21 25 28 30 29 30 29 29
32 23 9 6 11 8 8 12 11 14 10 17 15 20 10 10 14 16 13 14 10 9 12 10 6 4 2 13 10 16 16 10 11 10 11 17 20 21 28 27 19 17 23 27 28
35 6 6 9 8 6 11 9 8 12 14 14 18 11 11 16 16 13 18 10 6 7 5 8 7 6 12 12 12 11 19 18 22 22 17 15 13 26 21 29 23 21 16 26 25
11 7 3 12 6 8 6 4 6 6 12 12 16 9 18 18 15 17 13 6 3 4 3 2 10 10 10 18 18 18 4 7 11 10 17 15 15 13 19 27 14 17 11 13 26
6 6 8 13 7 8 4 7 11 11 10 8 14 17 15 15 17 18 9 13 10 2 4 2 6 6 7 9 18 8 8 10 12 15 13 7 9 15 12 26 23 16 16 15 23
7 6 8 11 8 5 8 8 7 10 12 10 9 13 12 14 14 15 11 7 8 5 7 5 6 13 23 23 21 20 17 16 10 12 12 15 5 17 22 19 22 20 20 20 19
9 6 6 12 6 8 8 11 5 11 12 9 11 14 16 14 8 9 20 14 16 3 4 1 5 8 10 9 15 12 13 14 19 18 18 8 6 9 20 9 23 22 20 20 24
6 6 5 4 5 10 12 10 13 8 10 8 14 17 12 10 13 13 25 8 8 17 20 9 6 14 14 20 2 5 11 9 15 11 18 17 5 18 16 16 16 19 20 16 22
5 6 4 8 10 13 12 13 16 15 7 16 9 14 18 13 19 14 11 21 21 17 2 3 6 14 20 24 23 21 19 19 17 20 21 15 5 9 16 13 19 18 15 18 19
8 6 7 13 9 12 5 11 14 17 18 14 18 21 20 17 17 21 22 21 5 3 1 2 6 15 21 21 20 20 20 19 18 16 16 21 13 10 15 15 19 17 18 23 26
6 2 7 10 10 9 8 13 17 17 9 13 19 22 20 22 27 26 23 19 12 5 2 3 4 7 11 7 0 7 16 18 18 18 14 16 2 5 15 15 18 20 20 25 21
Wind_Direction
348 343 340 338 336 333 331 327 325 321 316 317 318 317 314 313 301 248 258 50 66 308 300 260 214 240 233 240 244 235 250 244 245 251 251 262 262 228 234 252 253 245 236 222 113
344 339 336 335 334 331 328 323 321 320 315 315 314 316 316 317 294 257 106 137 190 292 267 303 269 238 238 235 228 233 243 247 260 258 257 260 258 251 233 225 236 249 240 218 154
341 337 334 333 331 329 327 322 318 314 310 311 313 317 315 308 270 129 142 172 207 257 273 296 274 267 261 246 230 238 246 262 265 266 278 281 276 244 234 251 224 234 230 235 238
337 334 332 330 329 328 325 318 313 309 305 307 311 312 311 285 301 101 153 184 215 262 277 259 246 250 252 259 237 254 253 259 267 273 282 279 279 264 258 247 237 236 241 234 208
334 333 332 330 328 327 323 315 308 301 295 295 299 298 288 237 253 127 156 183 222 236 266 280 277 287 271 270 270 254 257 263 262 259 267 273 266 262 260 262 258 266 237 240 239
331 331 332 330 329 326 320 312 303 295 287 283 277 278 252 261 63 138 188 199 236 242 259 263 278 296 300 272 273 281 281 268 266 261 251 253 259 263 259 269 258 249 258 240 248
331 330 331 331 329 324 318 310 299 292 283 266 244 234 267 256 224 165 199 236 262 266 274 283 289 275 272 273 264 269 267 262 256 258 259 254 251 247 251 256 247 247 248 252 244
331 330 330 331 330 324 316 311 308 291 264 218 205 229 267 308 247 208 245 256 219 243 266 286 283 274 268 275 270 260 261 263 253 235 241 238 249 243 244 247 246 245 234 236 245
330 329 329 330 329 323 314 312 309 174 156 161 199 233 269 117 219 233 242 272 303 278 242 281 260 260 258 244 254 239 255 254 253 242 245 225 247 246 251 238 231 236 233 241 230
329 329 328 328 327 319 310 301 197 167 194 207 262 252 238 249 37 304 273 267 286 283 215 221 239 242 235 238 257 271 248 264 266 250 253 242 248 240 244 234 254 230 223 231 240
329 328 327 326 324 313 300 201 221 196 204 295 296 272 288 272 269 255 255 279 284 236 255 253 240 244 256 264 269 276 280 284 288 287 275 282 265 241 246 246 244 226 230 225 223
329 328 327 326 323 311 266 322 25 311 303 283 281 279 286 276 279 272 254 276 264 260 266 250 256 247 268 302 293 275 269 267 274 277 265 261 269 262 243 229 238 235 223 229 219
328 328 327 324 324 268 307 22 326 318 284 285 278 282 345 264 271 296 298 272 276 274 273 276 273 289 257 258 272 266 277 281 280 278 272 266 260 266 249 242 225 235 233 237 233
328 328 327 322 291 339 249 344 321 337 270 119 167 142 229 243 285 276 235 290 277 271 286 277 271 262 256 266 266 264 269 267 262 272 260 248 256 233 243 232 233 229 226 232 238
328 330 324 330 317 336 349 325 329 242 283 39 352 43 258 290 306 257 221 265 275 279 280 263 279 267 275 263 276 273 282 268 255 256 266 251 255 263 226 230 224 218 228 229 232
329 329 323 220 236 359 326 321 249 234 25 324 291 325 313 313 337 311 268 222 276 279 268 266 268 261 259 260 252 264 266 257 249 261 257 249 251 240 248 223 217 219 217 219 227
328 324 308 293 334 326 317 260 243 334 349 3 334 328 307 328 319 338 302 291 272 284 278 273 251 237 246 260 256 240 245 244 236 229 251 242 239 250 252 219 216 220 205 206 218
325 320 206 273 331 322 286 263 284 12 354 333 327 306 296 2 341 331 321 297 294 264 290 288 296 248 194 240 250 238 238 235 267 252 270 252 226 237 245 252 215 227 205 199 208
312 218 261 2 332 293 273 286 358 349 342 327 310 304 332 351 335 322 321 307 348 351 301 318 248 305 274 262 251 244 243 258 271 289 274 251 209 254 234 241 221 210 205 193 193
317 288 26 337 327 276 297 330 318 338 325 317 303 312 325 339 331 341 306 314 346 80 93 327 287 276 271 288 247 246 249 258 244 267 267 265 236 233 224 223 221 174 197 215 183
250 284 38 340 289 285 339 337 325 346 322 320 314 316 317 319 325 314 268 319 12 175 281 204 253 283 286 239 248 218 244 231 270 259 272 269 291 345 264 210 198 196 204 222 188
295 300 26 327 290 346 2 343 326 308 318 292 289 286 309 324 315 308 276 301 360 293 285 263 276 272 270 263 243 259 245 251 228 240 265 299 268 276 292 218 200 204 190 205 214
320 296 99 328 20 346 344 305 272 292 309 297 295 304 318 319 312 281 294 301 325 330 255 188 244 289 289 227 229 234 251 256 241 268 252 263 312 312 308 269 199 204 190 187 204
311 325 354 282 152 344 345 318 321 327 317 295 298 294 319 304 299 287 295 316 320 282 269 220 221 243 267 286 264 275 278 235 247 258 259 255 122 280 302 348 329 210 181 194 198
357 17 37 309 337 329 304 303 319 331 323 301 278 301 331 322 310 281 297 300 303 292 112 258 263 251 262 259 268 268 258 250 243 253 254 264 105 285 294 320 308 311 247 175 194
333 346 336 291 297 305 277 339 323 329 321 303 313 317 320 302 286 298 302 299 267 266 201 228 272 284 281 263 240 249 249 252 247 251 252 262 237 275 295 294 295 295 275 174 102
7 311 274 285 309 307 358 325 312 311 314 309 316 310 309 301 312 297 284 268 232 191 225 246 275 301 277 356 198 236 249 236 243 241 253 237 314 258 296 299 296 281 260 114 121